DW6885 Weather Reports


Display with metric or nautical units.
time (UTC)temp
F
wind
direction
speed
MPH
gust
MPH
rain 1hr
in
rain 24hr
in
rain mn
in
humidity
%
barometer
mb
20141021235803 50 355 0.0 2.0 0.00 0.00 0.00 97 1014.2
20141021235554 50 355 0.0 2.0 0.00 0.00 0.00 97 1014.1
20141021234555 50 355 0.0 1.0 0.00 0.00 0.00 97 1014.2
20141021234306 50 355 0.0 1.0 0.00 0.00 0.00 96 1014.2
20141021233554 50 355 0.0 1.0 0.00 0.00 0.00 96 1014.2
20141021232805 50 355 0.0 1.0 0.00 0.00 0.00 96 1014.1
20141021232553 50 355 0.0 1.0 0.00 0.00 0.00 96 1014.0
20141021231555 50 355 0.0 5.0 0.00 0.00 0.00 96 1013.9
20141021231304 50 355 0.0 3.0 0.00 0.00 0.00 96 1013.9
20141021225806 50 292 0.0 1.0 0.00 0.00 0.00 96 1013.8
20141021224555 51 292 0.0 1.0 0.00 0.00 0.00 95 1013.7
20141021224204 50 292 0.0 1.0 0.00 0.00 0.00 95 1013.6
20141021222705 50 248 0.0 3.0 0.00 0.00 0.00 95 1013.6
20141021222554 51 350 1.0 2.0 0.00 0.00 0.00 94 1013.7
20141021221207 51 307 0.0 2.0 0.00 0.00 0.00 94 1013.6
20141021220555 51 307 0.0 5.0 0.00 0.00 0.00 93 1013.6
20141021215704 51 306 0.0 5.0 0.00 0.00 0.00 93 1013.5
20141021215555 51 235 1.0 5.0 0.00 0.00 0.00 93 1013.5
20141021214555 52 346 0.0 1.0 0.00 0.00 0.00 93 1013.4
20141021214205 51 346 0.0 1.0 0.00 0.00 0.00 92 1013.3
20141021213555 52 348 0.0 1.0 0.00 0.00 0.00 91 1013.3
20141021212705 52 348 0.0 2.0 0.00 0.00 0.00 91 1013.3
20141021212555 52 347 0.0 2.0 0.00 0.00 0.00 91 1013.3
20141021211554 53 346 0.0 0.0 0.00 0.00 0.00 90 1013.4
20141021211307 52 346 0.0 0.0 0.00 0.00 0.00 90 1013.4
20141021210554 53 346 0.0 2.0 0.00 0.00 0.00 90 1013.3
20141021205704 53 355 0.0 1.0 0.00 0.00 0.00 90 1013.3
20141021205556 53 355 0.0 1.0 0.00 0.00 0.00 89 1013.4
20141021204107 53 355 0.0 3.0 0.00 0.00 0.00 89 1013.2
20141021203553 54 192 0.0 3.0 0.00 0.00 0.00 89 1013.1
20141021202608 54 197 0.0 4.0 0.00 0.00 0.00 88 1013.0
20141021201106 55 211 0.0 2.0 0.00 0.00 0.00 87 1012.8
20141021200554 55 280 0.0 3.0 0.00 0.00 0.00 87 1012.9
20141021195608 55 285 0.0 2.0 0.00 0.00 0.00 86 1012.8
20141021195555 56 294 0.0 3.0 0.00 0.00 0.00 86 1012.8
20141021194107 56 226 0.0 3.0 0.00 0.00 0.00 84 1012.9
20141021193554 57 74 1.0 3.0 0.00 0.00 0.00 83 1012.9
20141021192607 57 172 0.0 3.0 0.00 0.00 0.00 82 1012.8
20141021191554 57 154 0.0 3.0 0.00 0.00 0.00 81 1012.9
20141021191107 57 154 0.0 3.0 0.00 0.00 0.00 82 1012.9
20141021190554 57 190 0.0 1.0 0.00 0.00 0.00 83 1012.8
20141021185609 56 190 0.0 2.0 0.00 0.00 0.00 82 1012.8
20141021184107 57 123 0.0 3.0 0.00 0.00 0.00 81 1012.8
20141021183553 58 60 1.0 3.0 0.00 0.00 0.00 80 1012.8
20141021182555 59 323 1.0 3.0 0.00 0.00 0.00 78 1012.7
20141021182504 58 323 1.0 3.0 0.00 0.00 0.00 77 1012.7
20141021181006 58 167 0.0 3.0 0.00 0.00 0.00 79 1012.6
20141021175556 58 23 0.0 1.0 0.00 0.00 0.00 82 1012.8
20141021175506 57 23 0.0 1.0 0.00 0.00 0.00 82 1012.8
20141021174007 57 23 0.0 3.0 0.00 0.00 0.00 80 1013.0
20141021173553 58 205 1.0 3.0 0.00 0.00 0.00 80 1013.1
20141021172555 58 171 1.0 2.0 0.00 0.00 0.00 78 1013.1
20141021172506 58 167 0.0 3.0 0.00 0.00 0.00 78 1013.0
20141021171008 58 189 0.0 4.0 0.00 0.00 0.00 82 1013.1
20141021170555 58 60 1.0 5.0 0.00 0.00 0.00 81 1013.1
20141021165507 58 192 1.0 4.0 0.00 0.00 0.00 81 1013.4
20141021164554 57 45 1.0 5.0 0.00 0.00 0.00 82 1013.5
20141021164005 57 30 1.0 5.0 0.00 0.00 0.00 83 1013.6
20141021162403 57 113 0.0 3.0 0.00 0.00 0.00 84 1013.9
20141021161555 57 79 1.0 3.0 0.00 0.00 0.00 82 1013.9
20141021160903 57 136 0.0 4.0 0.00 0.00 0.00 81 1013.9
20141021160553 57 134 1.0 3.0 0.00 0.00 0.00 81 1013.9
20141021155553 57 213 1.0 3.0 0.00 0.00 0.00 82 1014.1
20141021155408 56 213 1.0 4.0 0.00 0.00 0.00 82 1014.1
20141021154554 56 213 0.0 5.0 0.00 0.00 0.00 84 1014.1
20141021153905 55 178 0.0 4.0 0.00 0.00 0.00 86 1014.1
20141021153554 55 183 2.0 3.0 0.00 0.00 0.00 85 1014.1
20141021152553 54 205 1.0 3.0 0.00 0.00 0.00 86 1014.2
20141021152402 54 205 1.0 4.0 0.00 0.00 0.00 87 1014.2
20141021151103 53 135 0.0 2.0 0.00 0.00 0.00 88 1014.2
20141021150553 53 199 0.0 2.0 0.00 0.00 0.00 88 1014.3
20141021145501 52 199 0.0 2.0 0.00 0.00 0.00 90 1014.3
20141021144553 52 194 0.0 2.0 0.00 0.00 0.00 92 1014.4
20141021143805 51 183 0.0 4.0 0.00 0.00 0.00 92 1014.4
20141021143553 51 321 0.0 3.0 0.00 0.00 0.00 92 1014.4
20141021142553 50 209 1.0 3.0 0.00 0.00 0.00 93 1014.7
20141021142302 50 304 0.0 3.0 0.00 0.00 0.00 93 1014.7
20141021141554 50 304 0.0 2.0 0.00 0.00 0.00 93 1014.6
20141021140808 49 303 0.0 3.0 0.00 0.00 0.00 93 1014.7
20141021135301 48 227 0.0 2.0 0.00 0.00 0.00 96 1014.7
20141021134554 47 223 0.0 2.0 0.00 0.00 0.00 97 1014.9
20141021133802 46 223 0.0 1.0 0.00 0.00 0.00 97 1014.9
20141021132554 46 310 0.0 1.0 0.00 0.00 0.00 98 1015.0
20141021132306 45 301 0.0 1.0 0.00 0.00 0.00 98 1015.0
20141021131554 45 301 0.0 1.0 0.00 0.00 0.00 97 1015.0
20141021130807 44 301 0.0 1.0 0.00 0.00 0.00 98 1014.8
20141021130554 45 301 0.0 1.0 0.00 0.00 0.00 98 1014.8
20141021125553 44 301 0.0 1.0 0.00 0.00 0.00 98 1014.8
20141021125307 44 301 0.0 1.0 0.00 0.00 0.00 98 1014.8
20141021123804 43 301 0.0 0.0 0.00 0.00 0.00 98 1014.8
20141021122203 42 301 0.0 0.0 0.00 0.00 0.00 98 1014.6
20141021120705 42 301 0.0 0.0 0.00 0.00 0.00 98 1014.7
20141021115554 42 301 0.0 0.0 0.00 0.00 0.00 97 1014.5
20141021115207 41 301 0.0 0.0 0.00 0.00 0.00 97 1014.4
20141021114554 42 301 0.0 0.0 0.00 0.00 0.00 97 1014.3
20141021113702 41 301 0.0 0.0 0.00 0.00 0.00 97 1014.4
20141021113554 42 301 0.0 0.0 0.00 0.00 0.00 97 1014.4
20141021112556 42 301 0.0 0.0 0.00 0.00 0.00 97 1014.3
20141021112205 42 301 0.0 0.0 0.00 0.00 0.00 97 1014.2
20141021111557 42 301 0.0 0.0 0.00 0.00 0.00 97 1014.3
20141021110802 42 301 0.0 0.0 0.00 0.00 0.00 97 1014.2
20141021110554 42 301 0.0 0.0 0.00 0.00 0.00 97 1014.2
20141021105302 42 301 0.0 0.0 0.00 0.00 0.00 97 1014.1
20141021103708 41 301 0.0 1.0 0.00 0.00 0.00 97 1014.2
20141021102554 42 301 0.0 1.0 0.00 0.00 0.00 97 1014.2
20141021102204 41 301 0.0 1.0 0.00 0.00 0.00 97 1014.2
20141021101555 42 301 0.0 2.0 0.00 0.00 0.00 97 1014.1
20141021100605 41 301 0.0 0.0 0.00 0.00 0.00 97 1014.1
20141021095554 42 301 0.0 0.0 0.00 0.00 0.00 97 1014.2
20141021095102 41 301 0.0 0.0 0.00 0.00 0.00 97 1014.1
20141021093607 41 301 0.0 0.0 0.00 0.00 0.00 97 1013.9
20141021093554 42 301 0.0 0.0 0.00 0.00 0.00 97 1013.9
20141021092554 42 301 0.0 0.0 0.00 0.00 0.00 97 1013.9
20141021092106 41 301 0.0 0.0 0.00 0.00 0.00 97 1014.0
20141021090701 41 301 0.0 0.0 0.00 0.00 0.00 97 1014.0
20141021085104 41 301 0.0 0.0 0.00 0.00 0.00 97 1014.3
20141021084556 42 301 0.0 0.0 0.00 0.00 0.00 96 1014.3
20141021083608 41 301 0.0 0.0 0.00 0.00 0.00 96 1014.3
20141021083555 42 301 0.0 0.0 0.00 0.00 0.00 96 1014.2
20141021082554 42 301 0.0 0.0 0.00 0.00 0.00 96 1014.3
20141021082204 41 301 0.0 0.0 0.00 0.00 0.00 96 1014.4
20141021081554 42 301 0.0 0.0 0.00 0.00 0.00 96 1014.4
20141021080601 41 301 0.0 0.0 0.00 0.00 0.00 96 1014.6
20141021080555 42 301 0.0 0.0 0.00 0.00 0.00 95 1014.6
20141021075555 42 301 0.0 0.0 0.00 0.00 0.00 95 1014.6
20141021075008 41 301 0.0 0.0 0.00 0.00 0.00 95 1014.6
20141021073557 42 301 0.0 0.0 0.00 0.00 0.00 95 1014.7
20141021073504 42 301 0.0 0.0 0.00 0.00 0.00 95 1014.7
20141021072608 42 301 0.0 0.0 0.00 0.00 0.00 95 1014.7
20141021072011 42 301 0.0 0.0 0.00 0.00 0.00 95 1014.6
20141021070728 42 301 0.0 0.0 0.00 0.00 0.00 94 1014.8
20141021070509 42 301 0.0 0.0 0.00 0.00 0.00 94 1014.8
20141021065718 42 301 0.0 0.0 0.00 0.00 0.00 94 1014.9
20141021065004 42 301 0.0 0.0 0.00 0.00 0.00 94 1014.9
20141021064609 42 301 0.0 0.0 0.00 0.00 0.00 94 1015.0
20141021063608 42 301 0.0 0.0 0.00 0.00 0.00 94 1015.0
20141021063503 42 301 0.0 0.0 0.00 0.00 0.00 94 1015.1
20141021062607 42 301 0.0 0.0 0.00 0.00 0.00 93 1015.0
20141021062009 42 301 0.0 0.0 0.00 0.00 0.00 93 1015.0
20141021060503 42 301 0.0 0.0 0.00 0.00 0.00 93 1015.1
20141021055724 42 301 0.0 0.0 0.00 0.00 0.00 92 1015.2
20141021055003 42 301 0.0 0.0 0.00 0.00 0.00 92 1015.2
20141021054615 42 301 0.0 0.0 0.00 0.00 0.00 92 1015.1
20141021053608 42 301 0.0 0.0 0.00 0.00 0.00 92 1015.1
20141021053503 42 301 0.0 0.0 0.00 0.00 0.00 92 1015.1
20141021052611 42 301 0.0 0.0 0.00 0.00 0.00 91 1015.1
20141021052006 42 301 0.0 0.0 0.00 0.00 0.00 91 1015.2
20141021051607 42 301 0.0 0.0 0.00 0.00 0.00 91 1015.1
20141021050721 42 301 0.0 0.0 0.00 0.00 0.00 91 1015.2
20141021050404 42 301 0.0 0.0 0.00 0.00 0.00 91 1015.2
20141021045611 42 301 0.0 0.0 0.00 0.00 0.00 91 1015.2
20141021044903 42 301 0.0 0.0 0.00 0.00 0.00 91 1015.2
20141021044719 42 301 0.0 0.0 0.00 0.00 0.00 91 1015.3
20141021043720 42 301 0.0 0.0 0.00 0.00 0.00 90 1015.2
20141021043403 42 301 0.0 0.0 0.00 0.00 0.00 90 1015.2
20141021041902 42 301 0.0 0.0 0.00 0.00 0.00 90 1015.3
20141021040404 42 301 0.0 0.0 0.00 0.00 0.00 91 1015.4
20141021035553 42 301 0.0 0.0 0.00 0.00 0.00 90 1015.4
20141021034908 42 301 0.0 0.0 0.00 0.00 0.00 90 1015.4
20141021033405 42 301 0.0 0.0 0.00 0.00 0.00 90 1015.4
20141021031905 42 301 0.0 0.0 0.00 0.00 0.00 90 1015.3
20141021031553 42 301 0.0 0.0 0.00 0.00 0.00 90 1015.4
20141021030403 42 301 0.0 0.0 0.00 0.00 0.00 89 1015.4
20141021024901 42 301 0.0 0.0 0.00 0.00 0.00 89 1015.5
20141021023553 42 301 0.0 0.0 0.00 0.00 0.00 89 1015.4
20141021023308 42 301 0.0 0.0 0.00 0.00 0.00 89 1015.5
20141021022554 42 301 0.0 0.0 0.00 0.00 0.00 89 1015.4
20141021021803 42 301 0.0 0.0 0.00 0.00 0.00 88 1015.3
20141021020305 42 301 0.0 0.0 0.00 0.00 0.00 87 1015.3
20141021015553 43 301 0.0 0.0 0.00 0.00 0.00 87 1015.2
20141021014807 43 301 0.0 0.0 0.00 0.00 0.00 86 1015.3
20141021013552 44 301 0.0 0.0 0.00 0.00 0.00 85 1015.4
20141021013304 43 301 0.0 0.0 0.00 0.00 0.00 85 1015.4
20141021012553 44 301 0.0 0.0 0.00 0.00 0.00 85 1015.3
20141021011803 44 301 0.0 0.0 0.00 0.00 0.00 85 1015.4
20141021011553 44 301 0.0 0.0 0.00 0.00 0.00 85 1015.3
20141021010401 44 301 0.0 0.0 0.00 0.00 0.00 84 1015.3
20141021005552 45 301 0.0 1.0 0.00 0.00 0.00 84 1015.4
20141021004803 44 301 0.0 1.0 0.00 0.00 0.00 83 1015.4
20141021003301 44 301 0.0 0.0 0.00 0.00 0.00 82 1015.4
20141021001708 44 301 0.0 0.0 0.00 0.00 0.00 82 1015.2
20141021001554 45 301 0.0 0.0 0.00 0.00 0.00 81 1015.1
20141021000552 45 301 0.0 0.0 0.00 0.00 0.00 80 1015.2
20141021000206 45 301 0.0 0.0 0.00 0.00 0.00 79 1015.1